Location: Unspecified
(0.0000°N, 0.0000°E)
Time: 16:38:12
(UTC+00:00)

Hubble Space Telescope - Pass Details

Date: 20 September 2020
Orbit: 536 x 540 km, 28.5° (Epoch: 18 September)

Event Time Altitude Azimuth Distance (km) Brightness Sun altitude
Exits shadow 03:53:28 21° 48° (NE) 1,216 3.0 -30.0°
Drops below altitude 10° 03:54:56 10° 52° (NE) 1,772 4.0 -29.6°
Sets 03:57:12 0° 55° (NE) 2,660 5.1 -29.0°
